Previsão horária em Ploske

Hoje, 26 Fevereiro, Sexta-feira

Tempo Temperatura Precipitação Vento Pressão Humidade
00:00 +2°C° 0 mm 3 m/s 753 mmHg 99%
01:00 +2°C° 0 mm 3 m/s 752 mmHg 99%
02:00 +2°C° 0 mm 3 m/s 752 mmHg 99%
03:00 +1°C° 0 mm 3 m/s 752 mmHg 99%
04:00 +1°C° 0 mm 3 m/s 752 mmHg 99%
05:00 +1°C° 0 mm 3 m/s 751 mmHg 99%
06:00 +1°C° 0 mm 3 m/s 751 mmHg 98%
07:00 +1°C° 0 mm 3 m/s 750 mmHg 96%
08:00 +1°C° 0 mm 3 m/s 750 mmHg 95%
09:00 +1°C° 0 mm 4 m/s 750 mmHg 94%
10:00 +3°C° 0 mm 4 m/s 750 mmHg 93%
11:00 +4°C° 0 mm 4 m/s 749 mmHg 93%
12:00 +5°C° 0 mm 4 m/s 749 mmHg 91%
13:00 +6°C° 0 mm 4 m/s 748 mmHg 90%
14:00 +6°C° 0 mm 4 m/s 748 mmHg 88%
15:00 +6°C° 0 mm 4 m/s 748 mmHg 89%
16:00 +5°C° 0 mm 4 m/s 747 mmHg 90%
17:00 +4°C° 0 mm 3 m/s 747 mmHg 91%
18:00 +4°C° 0 mm 3 m/s 747 mmHg 92%
19:00 +3°C° 0 mm 3 m/s 747 mmHg 93%
20:00 +2°C° 0 mm 3 m/s 747 mmHg 93%
21:00 +2°C° 0 mm 3 m/s 746 mmHg 94%
22:00 +2°C° 0 mm 3 m/s 746 mmHg 94%
23:00 +2°C° 0 mm 3 m/s 745 mmHg 95%

Amanhã, 27 Fevereiro, Sábado

Tempo Temperatura Precipitação Vento Pressão Humidade
00:00 +2°C° 0.1 mm 3 m/s 746 mmHg 96%
01:00 +2°C° 0.1 mm 3 m/s 746 mmHg 96%
02:00 +2°C° 0.1 mm 3 m/s 746 mmHg 97%
03:00 +2°C° 0.5 mm 3 m/s 745 mmHg 95%
04:00 +1°C° 0.5 mm 4 m/s 745 mmHg 94%
05:00 +1°C° 0.5 mm 4 m/s 745 mmHg 93%
06:00 +1°C° 0 mm 4 m/s 745 mmHg 93%
07:00 0°C° 0 mm 4 m/s 745 mmHg 93%
08:00 0°C° 0 mm 5 m/s 745 mmHg 92%
09:00 0°C° 0 mm 5 m/s 745 mmHg 90%
10:00 +1°C° 0 mm 5 m/s 745 mmHg 87%
11:00 +1°C° 0 mm 5 m/s 745 mmHg 84%
12:00 +2°C° 0 mm 5 m/s 745 mmHg 81%
13:00 +2°C° 0 mm 6 m/s 745 mmHg 79%
14:00 +3°C° 0 mm 6 m/s 745 mmHg 76%
15:00 +3°C° 0 mm 5 m/s 745 mmHg 79%
16:00 +2°C° 0 mm 5 m/s 745 mmHg 83%
17:00 +3°C° 0 mm 4 m/s 745 mmHg 86%
18:00 +1°C° 0.2 mm 4 m/s 745 mmHg 89%
19:00 +1°C° 0.2 mm 5 m/s 745 mmHg 92%
20:00 0°C° 0.2 mm 5 m/s 745 mmHg 94%
21:00 0°C° 0 mm 5 m/s 745 mmHg 94%
22:00 0°C° 0 mm 5 m/s 746 mmHg 95%
23:00 0°C° 0 mm 5 m/s 746 mmHg 95%

Depois de amanhã, 28 Fevereiro, Domingo

Tempo Temperatura Precipitação Vento Pressão Humidade
00:00 0°C° 0 mm 5 m/s 746 mmHg 95%
01:00 0°C° 0 mm 5 m/s 747 mmHg 96%
02:00 -1°C° 0 mm 5 m/s 747 mmHg 96%
03:00 -1°C° 0.1 mm 5 m/s 747 mmHg 96%
04:00 -1°C° 0.1 mm 4 m/s 747 mmHg 96%
05:00 -1°C° 0.1 mm 4 m/s 747 mmHg 96%
06:00 -1°C° 0.1 mm 5 m/s 748 mmHg 95%
07:00 -1°C° 0.1 mm 5 m/s 748 mmHg 94%
08:00 -1°C° 0.1 mm 5 m/s 749 mmHg 93%
09:00 -1°C° 0.1 mm 5 m/s 749 mmHg 90%
10:00 -1°C° 0.1 mm 5 m/s 749 mmHg 87%
11:00 -1°C° 0.1 mm 5 m/s 749 mmHg 84%
12:00 0°C° 0.1 mm 5 m/s 750 mmHg 83%
13:00 -1°C° 0.1 mm 6 m/s 750 mmHg 81%
14:00 -1°C° 0.1 mm 6 m/s 750 mmHg 79%
15:00 -1°C° 0 mm 5 m/s 750 mmHg 79%
16:00 -1°C° 0 mm 5 m/s 750 mmHg 79%
17:00 -1°C° 0 mm 5 m/s 750 mmHg 79%
18:00 -1°C° 0.1 mm 5 m/s 750 mmHg 83%
19:00 -2°C° 0.1 mm 4 m/s 751 mmHg 87%
20:00 -2°C° 0.1 mm 4 m/s 751 mmHg 91%
21:00 -2°C° 0.1 mm 4 m/s 751 mmHg 90%
22:00 -1°C° 0.1 mm 3 m/s 751 mmHg 89%
23:00 -1°C° 0.1 mm 3 m/s 751 mmHg 88%

1 Março, Segunda-feira

Tempo Temperatura Precipitação Vento Pressão Humidade
00:00 -1°C° 0 mm 3 m/s 751 mmHg 88%
01:00 -2°C° 0 mm 3 m/s 752 mmHg 89%
02:00 -2°C° 0 mm 3 m/s 752 mmHg 89%
03:00 -2°C° 0 mm 3 m/s 752 mmHg 90%
04:00 -2°C° 0 mm 2 m/s 752 mmHg 92%
05:00 -2°C° 0 mm 2 m/s 752 mmHg 94%
06:00 -2°C° 0 mm 2 m/s 753 mmHg 93%
07:00 -2°C° 0 mm 2 m/s 753 mmHg 92%
08:00 -2°C° 0 mm 2 m/s 753 mmHg 91%
09:00 -1°C° 0 mm 3 m/s 754 mmHg 86%
10:00 0°C° 0 mm 3 m/s 754 mmHg 80%
11:00 0°C° 0 mm 4 m/s 755 mmHg 74%
12:00 0°C° 0 mm 4 m/s 755 mmHg 74%
13:00 0°C° 0 mm 4 m/s 755 mmHg 74%
14:00 0°C° 0 mm 4 m/s 755 mmHg 74%
15:00 +1°C° 0 mm 3 m/s 755 mmHg 76%
16:00 +1°C° 0 mm 3 m/s 755 mmHg 79%
17:00 0°C° 0 mm 3 m/s 755 mmHg 81%
18:00 0°C° 0 mm 3 m/s 755 mmHg 83%
19:00 +1°C° 0 mm 2 m/s 755 mmHg 84%
20:00 +1°C° 0 mm 2 m/s 756 mmHg 86%
21:00 +1°C° 0 mm 2 m/s 756 mmHg 87%
22:00 0°C° 0 mm 3 m/s 756 mmHg 87%
23:00 0°C° 0 mm 3 m/s 756 mmHg 87%

2 Março, Terça-feira

Tempo Temperatura Precipitação Vento Pressão Humidade
00:00 -1°C° 0 mm 3 m/s 756 mmHg 88%
01:00 -1°C° 0 mm 3 m/s 756 mmHg 90%
02:00 -1°C° 0 mm 3 m/s 755 mmHg 91%
03:00 -1°C° 0 mm 3 m/s 755 mmHg 90%
04:00 -1°C° 0 mm 3 m/s 755 mmHg 90%
05:00 0°C° 0 mm 3 m/s 755 mmHg 90%
06:00 -1°C° 0 mm 4 m/s 754 mmHg 91%
07:00 -1°C° 0 mm 4 m/s 754 mmHg 91%
08:00 0°C° 0 mm 5 m/s 754 mmHg 92%
09:00 +1°C° 0 mm 5 m/s 754 mmHg 87%
10:00 +2°C° 0 mm 6 m/s 754 mmHg 82%
11:00 +3°C° 0 mm 6 m/s 754 mmHg 77%
12:00 +4°C° 0 mm 6 m/s 753 mmHg 75%
13:00 +4°C° 0 mm 6 m/s 753 mmHg 72%
14:00 +5°C° 0 mm 6 m/s 753 mmHg 70%
15:00 +5°C° 0 mm 6 m/s 753 mmHg 72%
16:00 +5°C° 0 mm 5 m/s 753 mmHg 74%
17:00 +5°C° 0 mm 5 m/s 753 mmHg 77%
18:00 +4°C° 0 mm 4 m/s 753 mmHg 80%
19:00 +3°C° 0 mm 4 m/s 753 mmHg 83%
20:00 +3°C° 0 mm 4 m/s 753 mmHg 87%
21:00 +1°C° 0 mm 4 m/s 753 mmHg 88%
22:00 +1°C° 0 mm 4 m/s 753 mmHg 89%
23:00 +1°C° 0 mm 4 m/s 753 mmHg 90%

3 Março, Quarta-feira

Tempo Temperatura Precipitação Vento Pressão Humidade
00:00 +1°C° 0 mm 3 m/s 753 mmHg 91%
01:00 +1°C° 0 mm 3 m/s 753 mmHg 92%
02:00 +1°C° 0 mm 3 m/s 753 mmHg 92%
03:00 0°C° 0 mm 3 m/s 753 mmHg 93%
04:00 0°C° 0 mm 3 m/s 753 mmHg 93%
05:00 0°C° 0 mm 3 m/s 753 mmHg 93%
06:00 -1°C° 0 mm 4 m/s 752 mmHg 92%
07:00 0°C° 0 mm 4 m/s 752 mmHg 91%
08:00 0°C° 0 mm 4 m/s 752 mmHg 90%
09:00 +2°C° 0 mm 5 m/s 752 mmHg 84%
10:00 +3°C° 0 mm 5 m/s 752 mmHg 77%
11:00 +6°C° 0 mm 5 m/s 752 mmHg 71%
12:00 +7°C° 0 mm 5 m/s 751 mmHg 66%
13:00 +8°C° 0 mm 5 m/s 751 mmHg 62%
14:00 +9°C° 0 mm 6 m/s 751 mmHg 58%
15:00 +8°C° 0 mm 5 m/s 750 mmHg 59%
16:00 +8°C° 0 mm 4 m/s 750 mmHg 60%
17:00 +8°C° 0 mm 4 m/s 750 mmHg 61%
18:00 +7°C° 0 mm 4 m/s 750 mmHg 66%
19:00 +6°C° 0 mm 4 m/s 750 mmHg 71%
20:00 +5°C° 0 mm 4 m/s 750 mmHg 75%
21:00 +4°C° 0 mm 3 m/s 750 mmHg 78%
22:00 +3°C° 0 mm 3 m/s 750 mmHg 81%
23:00 +3°C° 0 mm 3 m/s 750 mmHg 84%
Mostrar mais

Necessitamos do seu Consentimento

A Meteoprog e os seus Fornecedores de Serviços podem armazenar e aceder a dados pessoais como cookies, identificadores do dispositivo ou outras tecnologias semelhantes existentes no seu dispositivo e processar estes dados para personalizar conteúdos e anúncios, assim como funcionalidades nas redes sociais e análise de tráfego.

  • Armazenar e/ou aceder a informações no seu dispositivo

    Os cookies, identificadores do dispositivo ou outras informações podem ser armazenados ou acedidos no seu dispositivo, para os fins acima indicados.

  • Anúncios e conteúdos personalizados, medição de anúncios e conteúdos, dados sobre o público-alvo e desenvolvimento de produtos

    Os anúncios e os conteúdos podem ser personalizados com base num perfil. Podem ser adicionados dados adicionais para uma maior personalização dos anúncios e dos conteúdos. A eficácia dos anúncios e dos conteúdos pode ser medida. Podem ser obtidas informações sobre o público que visualizou os anúncios e os conteúdos. Estes dados podem ser usados para desenvolver ou melhorar sistemas, softwares ou a experiência do utilizador.

Ao clicar em "Eu concordo”, permitirá o uso de cookies, identificadores do dispositivo e web beacons mencionados ou outras tecnologias semelhantes. As configurações do navegador do seu dispositivo podem ser alteradas.

Para certos fins, podem ser invocados interesses legítimos ao invés de consentimento. Pode ler mais informação sobre este assunto na nossa Política de Privacidade e Cookies.